Home   Weather   Red Deer   Past weeks

Flag for Canada Past Weather in Red Deer, Alberta, Canada — Yesterday and Last 2 Weeks

37 °F


Feels Like: 35 °F
Forecast: 31 / 43 °F
Wind: 3 mph from Southwest

Location: Red Deer

Current Time: Oct 25, 2016 at 3:08:32 PM

Latest Report: Oct 25, 2016 at 2:00 PM

Visibility: 4 mi

Pressure: 29.94 "Hg (26.93 "Hg at 857m altitude)

Humidity: 93%

Dew Point: 36 °F

Location of Red DeerLocation

Past Weather in Red Deer — Graph


Red Deer Temperature Yesterday

Maximum temperature yesterday: 37 °F (at 2:46 PM)
Minimum temperature yesterday: 27 °F (at 3:50 AM)
Average temperature yesterday: 34 °F

High & Low Weather Summary for the Past Weeks

High52 °F (Oct 21, 3:00 PM)100% (Oct 11, 1:00 AM)30.44 "Hg (Oct 11, 1:00 AM)
Low14 °F (Oct 12, 8:00 AM)35% (Oct 22, 2:00 PM)29.33 "Hg (Oct 16, 10:00 AM)
Average32 °F85%29.93 "Hg
* Reported Oct 10 2:00 PM — Oct 25 2:00 PM, Red Deer, Weather by CustomWeather, © 2016

Note: Actual official high and low records may vary slightly from our data, if they occured in-between our weather recording intervals... More about our weather records


Red Deer Weather History for the Previous 24 Hours

Scroll right to see more
Time TempWeatherWind HumidityBarometerVisibility
2:00 PM
Tue, Oct 25
37 °FFog.3 mph93%29.94 "Hg4 mi
1:00 PM37 °FFog.7 mph93%29.95 "Hg2 mi
12:00 PM37 °FFog.6 mph93%29.96 "Hg2 mi
11:00 AM36 °FFog.8 mph100%29.97 "Hg2 mi
10:00 AM36 °FFog.6 mph100%29.98 "Hg2 mi
9:00 AM36 °FDrizzle. Fog.6 mph100%29.99 "Hg1 mi
8:00 AM36 °FDrizzle. Fog.7 mph93%29.99 "Hg15 mi
7:00 AM36 °FDrizzle. Fog.7 mph93%29.98 "Hg2 mi
6:00 AM36 °FDrizzle. Fog.6 mph100%30.00 "Hg3 mi
5:00 AM36 °FDrizzle. Fog.7 mph100%30.00 "Hg5 mi
4:00 AM37 °FDrizzle. Fog.6 mph93%30.02 "Hg5 mi
3:00 AM37 °FFog.7 mph93%30.03 "Hg5 mi
2:00 AM37 °FDrizzle. Fog.3 mph100%30.03 "Hg2 mi
1:00 AM37 °FDrizzle. Fog.3 mph93%30.04 "Hg2 mi
12:00 AM37 °FDrizzle. Fog.5 mph93%30.05 "Hg2 mi
11:53 PM
Mon, Oct 24
37 °FDrizzle. Fog.3 mph93%30.06 "Hg2 mi
11:00 PM37 °FDrizzle. Fog.3 mph93%30.06 "Hg1 mi
10:00 PM37 °FDrizzle. Fog.5 mph93%30.07 "Hg1 mi
9:00 PM37 °FFog.8 mph93%30.08 "Hg6 mi
8:00 PM37 °FFog.8 mph93%30.08 "Hg6 mi
7:00 PM37 °FFog.8 mph93%30.08 "Hg6 mi
6:00 PM37 °FFog.8 mph93%30.07 "Hg6 mi
5:00 PM37 °FFog.12 mph93%30.08 "Hg5 mi
4:00 PM37 °FFog.6 mph93%30.09 "Hg4 mi
3:00 PM37 °FFog.8 mph93%30.11 "Hg3 mi
Weather by CustomWeather, © 2016

See weather overviewHow to use our weather pages